User: anonymous   Login
Location: Boca do Mato
(22.9085°S, 43.2930°W)
Time: 23:34:05
(UTC+00:00)
Language:

SMAP - Orbit

View from above orbital plane
View from above orbital plane
View from above satellite
View from above satellite

Ground track
Ground track

The orbit data is extracted from the following two-line orbital elements,

1 40376U 15003A   20275.57573276 +.00000054 +00000-0 +19505-4 0  9990
2 40376 098.1253 280.5524 0001574 076.2142 283.9236 14.63382747302749
Epoch (UTC): 01 October 2020 13:49:03
Eccentricity: 0.0001574
inclination: 98.1253°
perigee height: 681 km
apogee height: 683 km
right ascension of ascending node: 280.5524°
argument of perigee: 76.2142°
revolutions per day: 14.63382747
mean anomaly at epoch: 283.9236°
orbit number at epoch: 30274

The dashed part of the orbit path shows where the satellite is in the earth's shadow,  

DLR